Flag for Brazil Weather past 2 weeks in São Paulo, São Paulo, Brazil

Now
63 °F

Passing clouds.


Feels Like: 63 °F
Forecast: 58 / 65 °F
Wind: 13 mph from South

Location: Sao Paulo Airport

Current Time: Oct 2, 2014 at 3:06:41 AM

Latest Report: Oct 2, 2014 at 2:00 AM


Visibility: N/A

Pressure: 30.21 "Hg

Humidity: 83%

Dew point: 57 °F

Location of São PauloLocation

Historic Weather in São Paulo — Graph

°F

São Paulo temperature yesterday

Maximum temperature yesterday: 86 °F (at 3:00 PM)
Minimum temperature yesterday: 64 °F (at 10:00 PM)
Average temperature yesterday: 72 °F

Past Weeks' High & Low Weather Summary

 TemperatureHumidityPressure
High88 °F (Sep 24, 1:00 PM)100% (Sep 28, 6:00 PM)30.27 "Hg (Sep 28, 6:00 PM)
Low48 °F (Sep 28, 6:00 PM)22% (Sep 24, 1:00 PM)29.98 "Hg (Sep 19, 4:00 AM)
Average67 °F72%30.10 "Hg
* Reported Sep 17 2:00 AM — Oct 2 2:00 AM, São Paulo, Weather by CustomWeather, © 2014

Note: Actual official high and low records may vary slightly from our data, if they occured in-between our weather recording intervals... More about our weather records

Advertising

São Paulo weather history for previous 24 hours

 ConditionsComfort  
Time TempWeatherWind HumidityBarometerVisibility
2:00 AM
Oct 2
63 °FPassing clouds.13 mph83%30.21 "HgN/A
1:00 AM63 °FPassing clouds.16 mph77%30.21 "HgN/A
12:00 AM64 °FPartly cloudy.15 mph73%30.24 "HgN/A
11:00 PM
Oct 1
64 °FMostly cloudy.15 mph78%30.21 "HgN/A
10:00 PM64 °FOvercast.15 mph78%30.21 "HgN/A
9:00 PM66 °FPartly cloudy.14 mph73%30.21 "HgN/A
8:00 PM66 °FPassing clouds.16 mph73%30.18 "HgN/A
7:00 PM66 °FMostly cloudy.21 mph73%30.15 "HgN/A
6:00 PM68 °FPartly cloudy.18 mph69%30.12 "HgN/A
5:00 PM72 °FPartly sunny.22 mph61%30.09 "HgN/A
4:00 PM81 °FSunny.17 mph54%30.07 "Hg10 mi
3:00 PM86 °FSunny.8 mph38%30.04 "Hg10 mi
2:00 PM82 °FSunny.13 mph45%30.04 "Hg10 mi
1:00 PM82 °FSunny.16 mph45%30.07 "Hg10 mi
12:00 PM81 °FSunny.20 mph45%30.07 "Hg10 mi
11:00 AM77 °FSunny.9 mph54%30.09 "Hg10 mi
10:00 AM75 °FScattered clouds.16 mph54%30.04 "HgN/A
9:00 AM73 °FSunny.9 mph57%30.15 "Hg10 mi
8:00 AM70 °FPartly sunny.6 mph69%30.15 "HgN/A
7:00 AM70 °FPartly sunny.12 mph73%30.15 "HgN/A
6:00 AM72 °FPassing clouds.9 mph69%30.09 "HgN/A
5:00 AM70 °FSunny.5 mph78%30.04 "Hg10 mi
4:00 AM70 °FClear.5 mph78%30.01 "Hg10 mi
3:00 AM70 °FClear.6 mph78%30.01 "Hg10 mi
Weather by CustomWeather, © 2014

See weather overviewHow to use our weather pages